Starlink 5691

operational
NORAD ID: 55478 Int'l Des: 2023-015 Owner: SPXS Country: US Constellation: starlink
LEOCIRCULAR

About Starlink 5691

Description loading...

Live Position

Loading 3D Globe...

Upcoming Passes

Altitude History

Altitude vs Time

uPlot chart will show altitude changes over time

Two-Line Element Set

1 55478U 23015AF 26063.14261501 .00000704 00000-0 67153-4 0 9994
2 55478 43.0062 343.6327 0001313 272.9992 87.0700 15.02535784170068
Epoch: Mar 4, 2026 • Age: 10 hours

Current Status

Altitude 558.5 km
Velocity 7.58 km/s
Sub-Earth Point 2.97°N, 35.82°E
Launch Date Feb 2, 2023
Age 3 years
Type internet

Technical Details

Classification Payload
Mass 305.00 kg
Dry Mass 290.00 kg
Total Mass 305.00 kg
Length 0.20 m
Diameter 2.80 m
Span 9.00 m
Shape Box + pan
Manufacturer SPXS
Bus Type Starlink
Phase Status In Orbit
Owner/State SPXS/US

Large Constellations

Loading constellations...